| time (UTC) | temp C | wind direction | speed KPH | gust KPH | rain 1hr cm | rain 24hr cm | rain mn cm | humidity % | barometer mb |
| 20260505212014 | 10 | 342 | 4.8 | 12.9 | 0.00 | 0.00 | 0.00 | 83 | 1016.7 |
| 20260505210948 | 10 | 23 | 1.6 | 3.2 | 0.00 | 0.00 | 0.00 | 83 | 1016.7 |
| 20260505205956 | 10 | 326 | 3.2 | 3.2 | 0.00 | 0.00 | 0.00 | 82 | 1016.7 |
| 20260505204932 | 10 | 1 | 3.2 | 3.2 | 0.00 | 0.00 | 0.00 | 83 | 1016.6 |
| 20260505203944 | 10 | 18 | 1.6 | 3.2 | 0.00 | 0.00 | 0.00 | 88 | 1016.7 |
| 20260505202852 | 10 | 321 | 1.6 | 1.6 | 0.00 | 0.00 | 0.00 | 90 | 1016.4 |
| 20260505201850 | 10 | 358 | 1.6 | 3.2 | 0.00 | 0.00 | 0.00 | 90 | 1016.5 |
| 20260505200857 | 10 | 344 | 1.6 | 3.2 | 0.00 | 0.00 | 0.00 | 90 | 1016.4 |
| 20260505195835 | 10 | 0.0 | 0.0 | 0.00 | 0.00 | 0.00 | 89 | 1016.3 | |
| 20260505194828 | 10 | 47 | 1.6 | 1.6 | 0.00 | 0.00 | 0.00 | 88 | 1016.1 |
| 20260505193820 | 11 | 59 | 3.2 | 3.2 | 0.00 | 0.00 | 0.00 | 87 | 1016.2 |
| 20260505192833 | 11 | 347 | 1.6 | 1.6 | 0.00 | 0.00 | 0.00 | 85 | 1015.9 |
| 20260505191805 | 11 | 55 | 1.6 | 3.2 | 0.00 | 0.00 | 0.00 | 81 | 1015.8 |
| 20260505190753 | 12 | 357 | 1.6 | 1.6 | 0.00 | 0.00 | 0.00 | 79 | 1015.7 |
| 20260505185748 | 12 | 48 | 1.6 | 1.6 | 0.00 | 0.00 | 0.00 | 77 | 1015.7 |
| 20260505184740 | 12 | 24 | 3.2 | 3.2 | 0.00 | 0.00 | 0.00 | 72 | 1015.6 |
| 20260505183738 | 12 | 0.0 | 0.0 | 0.00 | 0.00 | 0.00 | 73 | 1015.5 | |
| 20260505182736 | 12 | 0.0 | 0.0 | 0.00 | 0.00 | 0.00 | 73 | 1015.4 | |
| 20260505181753 | 12 | 0.0 | 0.0 | 0.00 | 0.00 | 0.00 | 78 | 1015.3 | |
| 20260505180741 | 12 | 0.0 | 0.0 | 0.00 | 0.00 | 0.00 | 78 | 1015.2 | |
| 20260505175716 | 12 | 0.0 | 0.0 | 0.00 | 0.00 | 0.00 | 77 | 1015.2 | |
| 20260505174728 | 12 | 0.0 | 0.0 | 0.00 | 0.00 | 0.00 | 77 | 1015.2 | |
| 20260505173700 | 12 | 0.0 | 0.0 | 0.00 | 0.00 | 0.00 | 76 | 1015.2 | |
| 20260505172707 | 13 | 0.0 | 0.0 | 0.00 | 0.00 | 0.00 | 75 | 1015.3 | |
| 20260505171644 | 13 | 0.0 | 0.0 | 0.00 | 0.00 | 0.00 | 75 | 1015.2 | |
| 20260505170636 | 13 | 143 | 0.0 | 1.6 | 0.00 | 0.00 | 0.00 | 74 | 1015.3 |
| 20260505165634 | 13 | 0.0 | 0.0 | 0.00 | 0.00 | 0.00 | 73 | 1015.2 | |
| 20260505164455 | -17 | 0.0 | 0.0 | 0.00 | 0.00 | 0.00 | 1015.2 | ||
| 20260505163335 | 13 | 0.0 | 0.0 | 0.00 | 0.00 | 0.00 | 72 | 1015.3 | |
| 20260505162235 | 14 | 0.0 | 0.0 | 0.00 | 0.00 | 0.00 | 70 | 1015.2 | |
| 20260505161035 | 14 | 88 | 1.6 | 3.2 | 0.00 | 0.00 | 0.00 | 66 | 1015.4 |
| 20260505152836 | 15 | 130 | 1.6 | 3.2 | 0.00 | 0.00 | 0.00 | 64 | 1015.6 |
| 20260505151855 | 15 | 0.0 | 0.0 | 0.00 | 0.00 | 0.00 | 63 | 1015.3 | |
| 20260505150734 | 15 | 139 | 1.6 | 1.6 | 0.00 | 0.00 | 0.00 | 64 | 1015.5 |
| 20260505124549 | 18 | 47 | 0.0 | 1.6 | 0.00 | 0.03 | 0.00 | 49 | 1015.8 |
| 20260505123538 | 18 | 24 | 1.6 | 3.2 | 0.00 | 0.03 | 0.00 | 49 | 1015.8 |
| 20260505122535 | 18 | 12 | 1.6 | 1.6 | 0.00 | 0.03 | 0.00 | 48 | 1015.7 |
| 20260505121522 | 18 | 0.0 | 0.0 | 0.00 | 0.03 | 0.00 | 51 | 1015.7 | |
| 20260505120516 | 19 | 45 | 3.2 | 3.2 | 0.00 | 0.03 | 0.00 | 50 | 1015.9 |
| 20260505115508 | 18 | 0.0 | 0.0 | 0.00 | 0.03 | 0.00 | 52 | 1015.8 | |
| 20260505114434 | 17 | 345 | 1.6 | 4.8 | 0.00 | 0.03 | 0.00 | 55 | 1015.8 |
| 20260505113334 | 17 | 341 | 4.8 | 9.7 | 0.00 | 0.03 | 0.00 | 54 | 1016.0 |
| 20260505112308 | 16 | 346 | 1.6 | 1.6 | 0.00 | 0.03 | 0.00 | 55 | 1016.1 |
| 20260505111301 | 17 | 0.0 | 0.0 | 0.00 | 0.03 | 0.00 | 54 | 1016.0 | |
| 20260505110244 | 16 | 309 | 3.2 | 4.8 | 0.00 | 0.03 | 0.00 | 56 | 1016.3 |
| 20260505102221 | 17 | 4 | 6.4 | 9.7 | 0.00 | 0.03 | 0.00 | 54 | 1016.6 |
| 20260505101253 | 15 | 0.0 | 0.0 | 0.00 | 0.03 | 0.00 | 60 | 1016.6 | |
| 20260505100146 | 15 | 312 | 0.0 | 1.6 | 0.00 | 0.03 | 0.00 | 60 | 1016.6 |
| 20260505095138 | 16 | 25 | 1.6 | 3.2 | 0.00 | 0.03 | 0.00 | 57 | 1016.6 |
| 20260505094136 | 15 | 41 | 1.6 | 1.6 | 0.00 | 0.03 | 0.00 | 57 | 1016.7 |
| 20260505093122 | 14 | 15 | 1.6 | 3.2 | 0.00 | 0.03 | 0.00 | 60 | 1016.9 |
| 20260505092116 | 15 | 0.0 | 0.0 | 0.00 | 0.03 | 0.00 | 63 | 1016.8 | |
| 20260505091108 | 13 | 23 | 3.2 | 3.2 | 0.00 | 0.03 | 0.00 | 65 | 1016.8 |
| 20260505090121 | 15 | 338 | 6.4 | 9.7 | 0.00 | 0.03 | 0.00 | 66 | 1016.6 |
| 20260505085050 | 14 | 41 | 1.6 | 3.2 | 0.00 | 0.03 | 0.00 | 71 | 1016.7 |
| 20260505084042 | 12 | 42 | 1.6 | 1.6 | 0.00 | 0.03 | 0.00 | 77 | 1016.7 |
| 20260505083034 | 12 | 312 | 1.6 | 3.2 | 0.00 | 0.03 | 0.00 | 79 | 1016.8 |
| 20260505082049 | 12 | 4 | 4.8 | 4.8 | 0.00 | 0.03 | 0.00 | 79 | 1017.0 |
| 20260505081041 | 12 | 334 | 1.6 | 3.2 | 0.00 | 0.03 | 0.00 | 81 | 1016.9 |
| 20260505080013 | 11 | 0.0 | 0.0 | 0.00 | 0.03 | 0.00 | 82 | 1016.9 | |
| 20260505074501 | 10 | 0.0 | 0.0 | 0.00 | 0.03 | 0.00 | 85 | 1017.1 | |
| 20260505073455 | 10 | 2 | 1.6 | 3.2 | 0.00 | 0.03 | 0.00 | 85 | 1017.1 |
| 20260505072440 | 11 | 9 | 1.6 | 3.2 | 0.00 | 0.03 | 0.00 | 84 | 1016.9 |
| 20260505071438 | 10 | 0 | 3.2 | 4.8 | 0.00 | 0.03 | 0.00 | 87 | 1016.9 |
| 20260505070436 | 10 | 325 | 1.6 | 3.2 | 0.00 | 0.03 | 0.00 | 87 | 1017.1 |
| 20260505065434 | 10 | 321 | 1.6 | 3.2 | 0.00 | 0.03 | 0.00 | 88 | 1017.2 |
| 20260505064429 | 10 | 338 | 3.2 | 3.2 | 0.00 | 0.03 | 0.00 | 91 | 1017.3 |
| 20260505063421 | 9 | 0.0 | 0.0 | 0.00 | 0.03 | 0.00 | 93 | 1017.4 | |
| 20260505062413 | 9 | 27 | 1.6 | 3.2 | 0.00 | 0.03 | 0.00 | 94 | 1017.4 |
| 20260505061425 | 9 | 0.0 | 0.0 | 0.00 | 0.03 | 0.00 | 94 | 1017.4 | |
| 20260505060356 | 8 | 0.0 | 0.0 | 0.00 | 0.03 | 0.00 | 95 | 1017.4 | |
| 20260505055349 | 8 | 0.0 | 0.0 | 0.00 | 0.03 | 0.00 | 95 | 1017.4 | |
| 20260505054335 | 8 | 0.0 | 0.0 | 0.00 | 0.03 | 0.00 | 95 | 1017.4 | |
| 20260505053332 | 8 | 0.0 | 0.0 | 0.00 | 0.03 | 0.00 | 95 | 1017.2 | |
| 20260505052322 | 7 | 0.0 | 0.0 | 0.00 | 0.03 | 0.00 | 94 | 1017.7 | |
| 20260505051317 | 8 | 0.0 | 0.0 | 0.00 | 0.03 | 0.00 | 94 | 1017.4 | |
| 20260505050318 | 8 | 0.0 | 0.0 | 0.00 | 0.03 | 0.00 | 94 | 1017.0 | |
| 20260505041237 | 8 | 0.0 | 0.0 | 0.00 | 0.03 | 0.00 | 94 | 1017.3 | |
| 20260505040234 | 9 | 0.0 | 0.0 | 0.00 | 0.03 | 0.00 | 94 | 1017.3 | |
| 20260505035228 | 8 | 0.0 | 0.0 | 0.00 | 0.03 | 0.00 | 94 | 1017.4 | |
| 20260505034240 | 9 | 0.0 | 0.0 | 0.00 | 0.03 | 0.00 | 94 | 1017.5 | |
| 20260505033212 | 8 | 0.0 | 0.0 | 0.00 | 0.03 | 0.00 | 94 | 1017.5 | |
| 20260505032205 | 8 | 0.0 | 0.0 | 0.00 | 0.03 | 0.00 | 94 | 1017.4 | |
| 20260505031217 | 8 | 0.0 | 0.0 | 0.00 | 0.03 | 0.00 | 94 | 1017.4 | |
| 20260505030209 | 8 | 0.0 | 0.0 | 0.00 | 0.03 | 0.00 | 93 | 1017.5 | |
| 20260505025138 | 8 | 0.0 | 0.0 | 0.00 | 0.03 | 0.00 | 93 | 1017.5 | |
| 20260505024137 | 8 | 0.0 | 0.0 | 0.00 | 0.03 | 0.00 | 92 | 1017.3 | |
| 20260505023135 | 8 | 0.0 | 0.0 | 0.00 | 0.03 | 0.00 | 92 | 1017.5 | |
| 20260505022133 | 9 | 0.0 | 0.0 | 0.00 | 0.03 | 0.00 | 92 | 1017.4 | |
| 20260505021121 | 9 | 0.0 | 0.0 | 0.00 | 0.03 | 0.00 | 92 | 1017.7 | |
| 20260505020117 | 9 | 128 | 0.0 | 1.6 | 0.00 | 0.03 | 0.00 | 91 | 1017.7 |
| 20260505015109 | 10 | 92 | 1.6 | 1.6 | 0.00 | 0.03 | 0.00 | 91 | 1017.9 |
| 20260505014100 | 10 | 0.0 | 0.0 | 0.00 | 0.03 | 0.00 | 91 | 1017.9 | |
| 20260505013112 | 10 | 0.0 | 0.0 | 0.00 | 0.03 | 0.00 | 91 | 1017.7 | |
| 20260505012039 | 10 | 0.0 | 0.0 | 0.00 | 0.03 | 0.00 | 91 | 1017.9 | |
| 20260505011038 | 10 | 0.0 | 0.0 | 0.00 | 0.03 | 0.00 | 91 | 1017.9 | |
| 20260505010036 | 10 | 0.0 | 0.0 | 0.00 | 0.03 | 0.00 | 90 | 1018.3 | |
| 20260505005034 | 10 | 0.0 | 0.0 | 0.00 | 0.03 | 0.00 | 90 | 1018.0 | |
| 20260505004029 | 10 | 84 | 1.6 | 1.6 | 0.00 | 0.03 | 0.00 | 90 | 1018.3 |
| 20260505003020 | 10 | 0.0 | 0.0 | 0.00 | 0.05 | 0.00 | 90 | 1018.2 | |
| 20260505002133 | 10 | 0.0 | 0.0 | 0.00 | 0.13 | 0.00 | 90 | 1018.3 | |
| 20260505001005 | 10 | 0.0 | 0.0 | 0.00 | 0.30 | 0.00 | 89 | 1018.4 | |
| 20260504235956 | 10 | 0.0 | 0.0 | 0.00 | 0.36 | 0.36 | 89 | 1018.7 | |
| 20260504234949 | 10 | 0.0 | 0.0 | 0.00 | 0.36 | 0.36 | 89 | 1018.4 | |
| 20260504233940 | 10 | 47 | 0.0 | 1.6 | 0.00 | 0.36 | 0.36 | 89 | 1018.5 |
| 20260504232938 | 10 | 301 | 1.6 | 3.2 | 0.00 | 0.36 | 0.36 | 89 | 1018.7 |
| 20260504231936 | 10 | 0.0 | 0.0 | 0.00 | 0.36 | 0.36 | 89 | 1018.6 | |
| 20260504230943 | 10 | 0.0 | 0.0 | 0.00 | 0.36 | 0.36 | 89 | 1018.7 | |
| 20260504225921 | 10 | 0.0 | 0.0 | 0.00 | 0.36 | 0.36 | 89 | 1018.6 | |
| 20260504224917 | 11 | 192 | 0.0 | 1.6 | 0.00 | 0.36 | 0.36 | 89 | 1018.8 |
| 20260504223909 | 11 | 14 | 0.0 | 1.6 | 0.00 | 0.36 | 0.36 | 88 | 1018.6 |
| 20260504222901 | 11 | 0.0 | 0.0 | 0.00 | 0.36 | 0.36 | 88 | 1018.9 | |
| 20260504221853 | 11 | 0.0 | 0.0 | 0.00 | 0.36 | 0.36 | 88 | 1018.8 | |
| 20260504220841 | 11 | 47 | 1.6 | 3.2 | 0.00 | 0.36 | 0.36 | 87 | 1018.8 |
| 20260504215839 | 11 | 341 | 1.6 | 3.2 | 0.00 | 0.36 | 0.36 | 87 | 1018.7 |
| 20260504214837 | 11 | 0.0 | 0.0 | 0.00 | 0.36 | 0.36 | 86 | 1018.8 | |
| 20260504213835 | 11 | 322 | 1.6 | 1.6 | 0.00 | 0.36 | 0.36 | 86 | 1018.6 |
| 20260504212829 | 12 | 0.0 | 0.0 | 0.00 | 0.36 | 0.36 | 86 | 1018.8 |